Location: Carrer del Canonge
(41.4901°N, 2.2931°E)
Time: 04:36:29
(UTC+00:00)

Abrixas rocket - Pass Details

Date: 18 September 2020
Orbit: 328 x 335 km, 48.4° (Epoch: 25 October)

Event Time Altitude Azimuth Distance (km) Brightness Sun altitude
Rises 19:24:17 0° 284° (WNW) 2,093 7.6 -17.4°
Reaches altitude 10° 19:26:36 10° 303° (WNW) 1,256 5.8 -17.8°
Maximum altitude 19:28:46 20° 354° (N) 843 4.0 -18.2°
Enters shadow 19:29:30 18° 16° (NNE) 899 3.9 -18.3°
